Simultaneous Nadir Overpasses (SNOs) Predictions

Prediction of SNOs between GOES-17 and LANDSAT-8 Satellite Orbit:

Table of predicted SNOs for the next 14.0 days since TLE Epoch: 5/18/2024
Index Date Time (GOES-17) GOES-17 Lat,Lon LANDSAT-8 Lat,Lon Distance(km) Time Diff (sec)
1 05/18/2024 17:05:43 0.01,-104.71 -0.31,-103.28 162.51 80
2 05/19/2024 05:27:07 -0.01,-104.70 -0.80,-108.47 428.44 80
3 05/20/2024 16:53:31 0.01,-104.71 -0.94,-100.33 498.83 80
4 05/21/2024 05:14:55 -0.01,-104.71 -0.17,-105.52 92.13 80
5 05/23/2024 05:00:02 -0.01,-104.71 0.45,-102.56 244.08 80
6 05/23/2024 17:21:17 0.01,-104.71 0.65,-107.72 341.86 80
7 05/25/2024 17:09:04 0.00,-104.71 -0.01,-104.76 6.50 80
8 05/27/2024 16:56:50 -0.01,-104.70 -0.64,-101.80 329.72 80
9 05/28/2024 05:20:52 0.01,-104.69 -0.48,-106.99 260.99 80
10 05/30/2024 05:05:58 0.02,-104.69 0.14,-104.02 75.42 80
